Weather History for Glens Falls, NY

Change the Weather History Date:

Sunday, May 5, 2013

  Actual Average Record
Temperature  
Mean Temperature 59 °F 52 °F  
Max Temperature 77 °F 65 °F 87 °F (1949)
Min Temperature 41 °F 39 °F 24 °F (1974)
Degree Days  
Heating Degree Days 6 13  
Month to date heating degree days 25 69  
Since 1 July heating degree days 6718 7345  
Cooling Degree Days 0 0  
Month to date cooling degree days 0 0  
Year to date cooling degree days 0 1  
Growing Degree Days 8 (Base 50)    
Moisture  
Dew Point 36 °F    
Average Humidity 52    
Maximum Humidity 82    
Minimum Humidity 21    
Precipitation  
Precipitation 0.00 in 0.12 in 0.80 in (1989)
Month to date precipitation 0.00 0.57  
Year to date precipitation 8.06 11.45  
Sea Level Pressure  
Sea Level Pressure 30.21 in    
Wind  
Wind Speed 4 mph (South)    
Max Wind Speed 10 mph    
Max Gust Speed 14 mph    
Visibility 10 miles    
Events      
T = Trace of Precipitation, MM = Missing Value Source: NWS Daily Summary

Daily Weather History Graph

Daily Weather History Graph

Search for Another Location

Airport:

Trip Planner

Search our weather history database for the weather conditions in past years. The results will help you decide how hot, cold, wet, or windy it might be!

Date:

Astronomy

May. 05, 2013 Rise Set
Actual Time 5:41 AM EDT 8:01 PM EDT
Civil Twilight 5:10 AM EDT 8:32 PM EDT
Nautical Twilight 4:30 AM EDT 9:12 PM EDT
Astronomical Twilight 3:47 AM EDT 9:56 PM EDT
Moon 3:18 AM EDT (5/5) 3:51 PM EDT (5/5)
Length of Visible Light 15h 22m
Length of Day
14h 19m
Waning Crescent, 18% of the Moon is Illuminated
May 5
Waning Crescent
May 9
New
May 18
First Quarter
May 25
Full
May 31
Last Quarter

Hourly Weather History & Observations

Time (EDT) Temp. Windchill Dew Point Humidity Pressure Visibility Wind Dir Wind Speed Gust Speed Precip Events Conditions
12:53 AM 57.0 °F - 30.9 °F 37% 30.25 in 10.0 mi SSW 4.6 mph - N/A   Clear
1:53 AM 55.0 °F - 37.0 °F 51% 30.25 in 10.0 mi SSW 8.1 mph - N/A   Clear
2:53 AM 51.1 °F - 39.0 °F 63% 30.26 in 10.0 mi South 3.5 mph - N/A   Clear
3:53 AM 44.6 °F - 37.4 °F 76% 30.26 in 10.0 mi Calm Calm - N/A   Clear
4:53 AM 42.1 °F - 37.0 °F 82% 30.27 in 10.0 mi Calm Calm - N/A   Clear
5:53 AM 44.1 °F 42.5 °F 37.9 °F 79% 30.27 in 10.0 mi South 3.5 mph - N/A   Clear
6:53 AM 48.9 °F - 41.0 °F 74% 30.28 in 4.0 mi SSW 5.8 mph - N/A   Haze
7:53 AM 53.1 °F - 39.0 °F 59% 30.29 in 10.0 mi South 6.9 mph - N/A   Clear
8:53 AM 55.9 °F - 37.0 °F 49% 30.29 in 10.0 mi South 5.8 mph - N/A   Clear
9:53 AM 59.0 °F - 39.0 °F 48% 30.28 in 10.0 mi South 6.9 mph - N/A   Clear
10:53 AM 62.1 °F - 37.9 °F 41% 30.26 in 10.0 mi Variable 3.5 mph - N/A   Clear
11:53 AM 64.9 °F - 39.0 °F 39% 30.23 in 10.0 mi Calm Calm - N/A   Clear
12:53 PM 68.0 °F - 36.0 °F 31% 30.21 in 10.0 mi Calm Calm - N/A   Clear
1:53 PM 72.0 °F - 34.0 °F 25% 30.19 in 10.0 mi Variable 3.5 mph - N/A   Clear
2:53 PM 75.0 °F - 34.0 °F 22% 30.16 in 10.0 mi Calm Calm - N/A   Clear
3:53 PM 75.9 °F - 37.0 °F 24% 30.14 in 10.0 mi South 5.8 mph - N/A   Clear
4:53 PM 75.9 °F - 35.1 °F 23% 30.13 in 10.0 mi South 4.6 mph - N/A   Clear
5:53 PM 75.0 °F - 36.0 °F 24% 30.13 in 10.0 mi South 8.1 mph - N/A   Clear
6:53 PM 73.0 °F - 37.9 °F 28% 30.12 in 10.0 mi South 3.5 mph - N/A   Clear
7:53 PM 62.1 °F - 41.0 °F 46% 30.13 in 10.0 mi South 4.6 mph - N/A   Clear
8:53 PM 64.0 °F - 32.0 °F 30% 30.15 in 10.0 mi South 6.9 mph - N/A   Clear
9:53 PM 62.1 °F - 28.9 °F 29% 30.17 in 10.0 mi South 5.8 mph - N/A   Clear
10:53 PM 59.0 °F - 30.9 °F 35% 30.18 in 10.0 mi SSW 5.8 mph - N/A   Clear
11:53 PM 51.1 °F - 36.0 °F 56% 30.20 in 10.0 mi SSW 3.5 mph - N/A   Clear